Time,TemperatureF,DewpointF,PressureIn,WindDirection,WindDirectionDegrees,WindSpeedMPH,WindSpeedGustMPH,Humidity,HourlyPrecipIn,Conditions,Clouds,dailyrainin,SoftwareType,DateUTC
2013-12-17 00:01:00,19.2,16.0,29.97,NE,34,0.0,2.0,87,0.00,,,0.00,meteohub,2013-12-17 06:01:00,
2013-12-17 00:06:00,19.8,16.5,29.96,ESE,116,0.0,2.0,87,0.00,,,0.00,meteohub,2013-12-17 06:06:00,
2013-12-17 00:11:00,20.3,17.2,29.96,ESE,116,0.0,2.0,88,0.00,,,0.00,meteohub,2013-12-17 06:11:00,
2013-12-17 00:16:00,20.8,17.8,29.95,North,350,0.0,2.0,88,0.00,,,0.00,meteohub,2013-12-17 06:16:00,
2013-12-17 00:21:00,21.6,18.5,29.95,NNE,24,0.0,4.0,88,0.00,,,0.00,meteohub,2013-12-17 06:21:00,
2013-12-17 00:27:00,21.7,18.7,29.95,NNE,24,0.0,4.0,88,0.00,,,0.00,meteohub,2013-12-17 06:27:00,
2013-12-17 00:32:00,22.1,19.0,29.95,NE,42,1.0,4.0,88,0.00,,,0.00,meteohub,2013-12-17 06:32:00,
2013-12-17 00:37:00,22.3,19.2,29.95,NE,41,0.0,3.0,88,0.00,,,0.00,meteohub,2013-12-17 06:37:00,
2013-12-17 00:42:00,22.5,19.4,29.94,North,0,2.0,3.0,88,0.00,,,0.00,meteohub,2013-12-17 06:42:00,
2013-12-17 00:47:00,22.8,19.8,29.94,NNE,28,0.0,4.0,88,0.00,,,0.00,meteohub,2013-12-17 06:47:00,
2013-12-17 00:52:00,23.0,19.9,29.94,NNE,28,0.0,4.0,88,0.00,,,0.00,meteohub,2013-12-17 06:52:00,
2013-12-17 00:57:00,23.2,20.1,29.94,WSW,244,0.0,4.0,88,0.00,,,0.00,meteohub,2013-12-17 06:57:00,
2013-12-17 01:02:00,23.4,20.3,29.93,WSW,251,0.0,2.0,88,0.00,,,0.00,meteohub,2013-12-17 07:02:00,
2013-12-17 01:07:00,23.4,20.3,29.93,WSW,251,0.0,2.0,88,0.00,,,0.00,meteohub,2013-12-17 07:07:00,
2013-12-17 01:12:00,23.5,20.5,29.93,NNW,342,1.0,4.0,88,0.00,,,0.00,meteohub,2013-12-17 07:12:00,
2013-12-17 01:17:00,23.5,20.5,29.93,NNW,342,0.0,4.0,88,0.00,,,0.00,meteohub,2013-12-17 07:17:00,
2013-12-17 01:22:00,23.7,20.7,29.93,NW,321,0.0,4.0,88,0.00,,,0.00,meteohub,2013-12-17 07:22:00,
2013-12-17 01:27:00,23.7,20.7,29.93,ENE,74,0.0,2.0,88,0.00,,,0.00,meteohub,2013-12-17 07:27:00,
2013-12-17 01:32:00,23.9,20.8,29.93,ENE,64,0.0,2.0,88,0.00,,,0.00,meteohub,2013-12-17 07:32:00,
2013-12-17 01:37:00,24.1,21.0,29.93,NW,313,1.0,2.0,88,0.00,,,0.00,meteohub,2013-12-17 07:37:00,
2013-12-17 01:42:00,24.3,21.2,29.93,NNW,346,0.0,6.0,88,0.00,,,0.00,meteohub,2013-12-17 07:42:00,
2013-12-17 01:47:00,24.4,21.4,29.93,NNW,347,0.0,6.0,88,0.00,,,0.00,meteohub,2013-12-17 07:47:00,
2013-12-17 01:52:00,24.4,21.4,29.93,NNW,346,0.0,4.0,88,0.00,,,0.00,meteohub,2013-12-17 07:52:00,
2013-12-17 01:57:00,24.4,21.4,29.92,NNW,346,0.0,2.0,88,0.00,,,0.00,meteohub,2013-12-17 07:57:00,
2013-12-17 02:02:00,24.4,21.4,29.92,NE,36,2.0,0.0,88,0.00,,,0.00,meteohub,2013-12-17 08:02:00,
2013-12-17 02:07:00,24.6,21.6,29.92,NE,37,2.0,2.0,88,0.00,,,0.00,meteohub,2013-12-17 08:07:00,
2013-12-17 02:12:00,25.0,21.9,29.92,NE,50,3.0,3.0,88,0.00,,,0.00,meteohub,2013-12-17 08:12:00,
2013-12-17 02:17:00,25.2,22.1,29.93,NE,49,1.0,6.0,88,0.00,,,0.00,meteohub,2013-12-17 08:17:00,
2013-12-17 02:22:00,25.5,22.5,29.93,NNE,26,0.0,6.0,88,0.00,,,0.00,meteohub,2013-12-17 08:22:00,
2013-12-17 02:27:00,25.9,22.8,29.93,NE,51,1.0,6.0,88,0.00,,,0.00,meteohub,2013-12-17 08:27:00,
2013-12-17 02:32:00,26.1,23.0,29.93,ENE,57,0.0,4.0,88,0.00,,,0.00,meteohub,2013-12-17 08:32:00,
2013-12-17 02:37:00,26.2,23.2,29.93,NE,56,0.0,4.0,88,0.00,,,0.00,meteohub,2013-12-17 08:37:00,
2013-12-17 02:42:00,26.2,23.2,29.93,ENE,57,0.0,3.0,88,0.00,,,0.00,meteohub,2013-12-17 08:42:00,
2013-12-17 02:47:00,26.4,23.4,29.93,NNE,22,0.0,2.0,88,0.00,,,0.00,meteohub,2013-12-17 08:47:00,
2013-12-17 02:52:00,26.8,23.9,29.93,North,0,0.0,3.0,89,0.00,,,0.00,meteohub,2013-12-17 08:52:00,
2013-12-17 02:57:00,27.0,24.1,29.93,North,5,0.0,3.0,89,0.00,,,0.00,meteohub,2013-12-17 08:57:00,
2013-12-17 03:02:00,27.1,24.1,29.93,North,0,0.0,2.0,88,0.00,,,0.00,meteohub,2013-12-17 09:02:00,
2013-12-17 03:07:00,27.3,24.3,29.93,North,5,0.0,3.0,88,0.00,,,0.00,meteohub,2013-12-17 09:07:00,
2013-12-17 03:12:00,27.5,24.6,29.93,NNE,17,0.0,4.0,89,0.00,,,0.00,meteohub,2013-12-17 09:12:00,
2013-12-17 03:17:00,27.7,24.8,29.92,North,355,0.0,4.0,89,0.00,,,0.00,meteohub,2013-12-17 09:17:00,
2013-12-17 03:22:00,27.9,24.8,29.92,NE,40,0.0,4.0,88,0.00,,,0.00,meteohub,2013-12-17 09:22:00,
2013-12-17 03:27:00,27.9,24.8,29.92,NE,36,2.0,3.0,88,0.00,,,0.00,meteohub,2013-12-17 09:27:00,
2013-12-17 03:32:00,28.2,25.3,29.92,NW,319,2.0,4.0,89,0.00,,,0.00,meteohub,2013-12-17 09:32:00,
2013-12-17 03:37:00,28.4,25.5,29.92,North,355,1.0,4.0,89,0.00,,,0.00,meteohub,2013-12-17 09:37:00,
2013-12-17 03:42:00,28.8,25.9,29.92,North,0,0.0,4.0,89,0.00,,,0.00,meteohub,2013-12-17 09:42:00,
2013-12-17 03:47:00,28.9,26.1,29.92,NNE,30,3.0,7.0,89,0.00,,,0.00,meteohub,2013-12-17 09:47:00,
2013-12-17 03:52:00,29.3,26.4,29.92,NE,49,3.0,7.0,89,0.00,,,0.00,meteohub,2013-12-17 09:52:00,
2013-12-17 03:57:00,29.7,26.8,29.92,NNE,26,1.0,7.0,89,0.00,,,0.00,meteohub,2013-12-17 09:57:00,
2013-12-17 04:02:00,29.7,26.8,29.92,NE,56,2.0,5.0,89,0.00,,,0.00,meteohub,2013-12-17 10:02:00,
2013-12-17 04:07:00,30.0,27.1,29.92,NE,40,0.0,5.0,89,0.00,,,0.00,meteohub,2013-12-17 10:07:00,
2013-12-17 04:12:00,30.2,27.3,29.93,ENE,57,1.0,5.0,89,0.00,,,0.00,meteohub,2013-12-17 10:12:00,
2013-12-17 04:17:00,30.6,27.5,29.92,NE,51,0.0,8.0,88,0.00,,,0.00,meteohub,2013-12-17 10:17:00,
2013-12-17 04:22:00,30.7,27.7,29.92,North,350,0.0,8.0,88,0.00,,,0.00,meteohub,2013-12-17 10:22:00,
2013-12-17 04:27:00,30.9,27.9,29.93,NE,41,5.0,12.0,88,0.00,,,0.00,meteohub,2013-12-17 10:27:00,
2013-12-17 04:32:00,31.1,28.0,29.93,NE,55,4.0,13.0,88,0.00,,,0.00,meteohub,2013-12-17 10:32:00,
2013-12-17 04:37:00,31.1,27.7,29.92,NNE,17,3.0,13.0,87,0.00,,,0.00,meteohub,2013-12-17 10:37:00,
2013-12-17 04:42:00,31.1,27.7,29.93,ENE,57,1.0,9.0,87,0.00,,,0.00,meteohub,2013-12-17 10:42:00,
2013-12-17 04:47:00,30.9,27.5,29.92,NE,35,0.0,9.0,87,0.00,,,0.00,meteohub,2013-12-17 10:47:00,
2013-12-17 04:52:00,30.9,27.1,29.93,NE,42,2.0,9.0,86,0.00,,,0.00,meteohub,2013-12-17 10:52:00,
2013-12-17 04:57:00,30.9,27.1,29.93,NE,46,3.0,9.0,86,0.00,,,0.00,meteohub,2013-12-17 10:57:00,
2013-12-17 05:02:00,30.9,27.1,29.93,NE,44,1.0,9.0,86,0.00,,,0.00,meteohub,2013-12-17 11:02:00,
2013-12-17 05:07:00,30.7,26.8,29.93,ENE,58,2.0,8.0,85,0.00,,,0.00,meteohub,2013-12-17 11:07:00,
2013-12-17 05:12:00,30.7,26.8,29.93,NE,49,3.0,9.0,85,0.00,,,0.00,meteohub,2013-12-17 11:12:00,
2013-12-17 05:17:00,30.6,26.6,29.93,NE,38,0.0,9.0,85,0.00,,,0.00,meteohub,2013-12-17 11:17:00,
2013-12-17 05:22:00,30.6,26.2,29.93,North,0,1.0,5.0,84,0.00,,,0.00,meteohub,2013-12-17 11:22:00,
2013-12-17 05:27:00,30.4,26.1,29.94,North,11,0.0,5.0,84,0.00,,,0.00,meteohub,2013-12-17 11:27:00,
2013-12-17 05:32:00,30.2,25.9,29.94,NNE,28,1.0,6.0,84,0.00,,,0.00,meteohub,2013-12-17 11:32:00,
2013-12-17 05:37:00,30.0,25.7,29.94,ENE,59,7.0,7.0,84,0.00,,,0.00,meteohub,2013-12-17 11:37:00,
2013-12-17 05:42:00,30.0,25.7,29.94,NNW,330,0.0,7.0,84,0.00,,,0.00,meteohub,2013-12-17 11:42:00,
2013-12-17 05:47:00,29.8,25.3,29.94,NNE,25,0.0,9.0,83,0.00,,,0.00,meteohub,2013-12-17 11:47:00,
2013-12-17 05:52:00,29.8,25.3,29.94,NNE,14,0.0,9.0,83,0.00,,,0.00,meteohub,2013-12-17 11:52:00,
2013-12-17 05:57:00,29.7,25.2,29.94,NE,44,1.0,9.0,83,0.00,,,0.00,meteohub,2013-12-17 11:57:00,
2013-12-17 06:02:00,29.7,25.2,29.94,NE,50,2.0,9.0,83,0.00,,,0.00,meteohub,2013-12-17 12:02:00,
2013-12-17 06:07:00,29.7,25.2,29.95,NE,56,2.0,10.0,83,0.00,,,0.00,meteohub,2013-12-17 12:07:00,
2013-12-17 06:12:00,29.5,25.0,29.95,NNE,15,0.0,10.0,83,0.00,,,0.00,meteohub,2013-12-17 12:12:00,
2013-12-17 06:17:00,29.3,24.4,29.95,NNE,21,0.0,10.0,82,0.00,,,0.00,meteohub,2013-12-17 12:17:00,
2013-12-17 06:22:00,29.1,24.3,29.95,NE,48,6.0,6.0,82,0.00,,,0.00,meteohub,2013-12-17 12:22:00,
2013-12-17 06:27:00,28.9,24.1,29.95,ENE,58,4.0,10.0,82,0.00,,,0.00,meteohub,2013-12-17 12:27:00,
2013-12-17 06:32:00,28.9,24.1,29.96,NE,56,2.0,11.0,82,0.00,,,0.00,meteohub,2013-12-17 12:32:00,
2013-12-17 06:37:00,28.9,24.1,29.95,NE,46,0.0,11.0,82,0.00,,,0.00,meteohub,2013-12-17 12:37:00,
2013-12-17 06:42:00,28.8,23.9,29.95,NE,53,0.0,11.0,82,0.00,,,0.00,meteohub,2013-12-17 12:42:00,
2013-12-17 06:47:00,28.8,23.9,29.96,NE,47,0.0,9.0,82,0.00,,,0.00,meteohub,2013-12-17 12:47:00,
2013-12-17 06:52:00,28.6,23.7,29.96,NE,44,2.0,12.0,82,0.00,,,0.00,meteohub,2013-12-17 12:52:00,
2013-12-17 06:57:00,28.6,23.7,29.96,NE,41,1.0,12.0,82,0.00,,,0.00,meteohub,2013-12-17 12:57:00,
2013-12-17 07:02:00,28.2,23.4,29.96,NE,50,5.0,13.0,82,0.00,,,0.00,meteohub,2013-12-17 13:02:00,
2013-12-17 07:07:00,28.2,23.4,29.96,East,90,4.0,13.0,82,0.00,,,0.00,meteohub,2013-12-17 13:07:00,
2013-12-17 07:12:00,28.2,23.4,29.97,NE,37,0.0,13.0,82,0.00,,,0.00,meteohub,2013-12-17 13:12:00,
2013-12-17 07:17:00,28.2,23.2,29.97,NE,43,0.0,12.0,81,0.00,,,0.00,meteohub,2013-12-17 13:17:00,
2013-12-17 07:22:00,28.0,23.0,29.98,NE,51,0.0,12.0,81,0.00,,,0.00,meteohub,2013-12-17 13:22:00,
2013-12-17 07:27:00,28.0,23.0,29.98,NE,53,4.0,9.0,81,0.00,,,0.00,meteohub,2013-12-17 13:27:00,
2013-12-17 07:32:00,27.9,22.8,29.98,NE,55,2.0,7.0,81,0.00,,,0.00,meteohub,2013-12-17 13:32:00,
2013-12-17 07:37:00,27.7,22.6,29.98,NE,50,1.0,7.0,81,0.00,,,0.00,meteohub,2013-12-17 13:37:00,
2013-12-17 07:42:00,27.7,22.6,29.98,NE,55,0.0,10.0,81,0.00,,,0.00,meteohub,2013-12-17 13:42:00,
2013-12-17 07:47:00,27.5,22.5,29.99,ENE,64,0.0,10.0,81,0.00,,,0.00,meteohub,2013-12-17 13:47:00,
2013-12-17 07:52:00,27.3,21.9,29.99,ENE,57,9.0,10.0,80,0.00,,,0.00,meteohub,2013-12-17 13:52:00,
2013-12-17 07:57:00,27.3,21.9,29.99,North,355,4.0,11.0,80,0.00,,,0.00,meteohub,2013-12-17 13:57:00,
2013-12-17 08:02:00,27.3,21.9,29.99,NE,39,0.0,11.0,80,0.00,,,0.00,meteohub,2013-12-17 14:02:00,
2013-12-17 08:07:00,27.1,21.6,29.99,NNE,33,2.0,10.0,79,0.00,,,0.00,meteohub,2013-12-17 14:07:00,
2013-12-17 08:12:00,27.1,21.6,29.99,NE,39,5.0,6.0,79,0.00,,,0.00,meteohub,2013-12-17 14:12:00,
2013-12-17 08:17:00,27.0,21.4,29.99,North,0,0.0,6.0,79,0.00,,,0.00,meteohub,2013-12-17 14:17:00,
2013-12-17 08:22:00,27.0,21.4,29.99,NNE,33,4.0,6.0,79,0.00,,,0.00,meteohub,2013-12-17 14:22:00,
2013-12-17 08:27:00,27.0,21.4,29.99,NE,45,0.0,10.0,79,0.00,,,0.00,meteohub,2013-12-17 14:27:00,
2013-12-17 08:32:00,27.0,21.0,30.00,NE,37,3.0,10.0,78,0.00,,,0.00,meteohub,2013-12-17 14:32:00,
2013-12-17 08:37:00,27.1,21.2,30.00,ENE,59,3.0,10.0,78,0.00,,,0.00,meteohub,2013-12-17 14:37:00,
2013-12-17 08:43:00,27.1,21.2,30.00,ENE,63,3.0,13.0,78,0.00,,,0.00,meteohub,2013-12-17 14:43:00,
2013-12-17 08:48:00,27.3,21.4,30.00,NE,52,5.0,13.0,78,0.00,,,0.00,meteohub,2013-12-17 14:48:00,
2013-12-17 08:53:00,27.3,21.0,30.01,NE,37,3.0,13.0,77,0.00,,,0.00,meteohub,2013-12-17 14:53:00,
2013-12-17 08:58:00,27.7,21.4,30.00,NE,55,9.0,12.0,77,0.00,,,0.00,meteohub,2013-12-17 14:58:00,
2013-12-17 09:03:00,28.0,21.7,30.00,NNE,26,7.0,14.0,77,0.00,,,0.00,meteohub,2013-12-17 15:03:00,
2013-12-17 09:08:00,28.2,21.6,30.01,North,5,0.0,14.0,76,0.00,,,0.00,meteohub,2013-12-17 15:08:00,
2013-12-17 09:13:00,28.2,21.6,30.01,ENE,61,1.0,14.0,76,0.00,,,0.00,meteohub,2013-12-17 15:13:00,
2013-12-17 09:18:00,28.2,21.4,30.01,NE,53,4.0,13.0,75,0.00,,,0.00,meteohub,2013-12-17 15:18:00,
2013-12-17 09:23:00,28.2,21.0,30.02,ENE,61,7.0,13.0,74,0.00,,,0.00,meteohub,2013-12-17 15:23:00,
2013-12-17 09:28:00,28.4,21.2,30.02,NNE,22,10.0,16.0,74,0.00,,,0.00,meteohub,2013-12-17 15:28:00,
2013-12-17 09:33:00,28.4,21.2,30.02,NE,40,6.0,16.0,74,0.00,,,0.00,meteohub,2013-12-17 15:33:00,
2013-12-17 09:38:00,28.6,21.0,30.02,North,5,4.0,16.0,73,0.00,,,0.00,meteohub,2013-12-17 15:38:00,
2013-12-17 09:43:00,28.6,21.0,30.02,ENE,73,2.0,15.0,73,0.00,,,0.00,meteohub,2013-12-17 15:43:00,
2013-12-17 09:48:00,28.6,20.7,30.03,North,0,14.0,15.0,72,0.00,,,0.00,meteohub,2013-12-17 15:48:00,
2013-12-17 09:53:00,28.6,20.7,30.02,NE,45,5.0,15.0,72,0.00,,,0.00,meteohub,2013-12-17 15:53:00,
2013-12-17 09:59:00,28.6,20.3,30.03,NE,52,3.0,15.0,71,0.00,,,0.00,meteohub,2013-12-17 15:59:00,
2013-12-17 10:04:00,28.6,20.3,30.03,ENE,69,7.0,15.0,71,0.00,,,0.00,meteohub,2013-12-17 16:04:00,
2013-12-17 10:09:00,28.6,20.3,30.03,NNE,26,10.0,15.0,71,0.00,,,0.00,meteohub,2013-12-17 16:09:00,
2013-12-17 10:14:00,28.6,20.1,30.04,NE,44,2.0,17.0,70,0.00,,,0.00,meteohub,2013-12-17 16:14:00,
2013-12-17 10:19:00,28.6,20.1,30.04,ENE,63,2.0,17.0,70,0.00,,,0.00,meteohub,2013-12-17 16:19:00,
2013-12-17 10:24:00,28.8,20.3,30.04,ENE,71,0.0,17.0,70,0.00,,,0.00,meteohub,2013-12-17 16:24:00,
2013-12-17 10:29:00,28.8,20.3,30.04,East,90,4.0,14.0,70,0.00,,,0.00,meteohub,2013-12-17 16:29:00,
2013-12-17 10:34:00,28.8,20.3,30.04,NE,56,2.0,14.0,70,0.00,,,0.00,meteohub,2013-12-17 16:34:00,
2013-12-17 10:39:00,28.8,20.3,30.03,North,355,3.0,14.0,70,0.00,,,0.00,meteohub,2013-12-17 16:39:00,
2013-12-17 10:44:00,28.8,20.3,30.04,ENE,61,5.0,13.0,70,0.00,,,0.00,meteohub,2013-12-17 16:44:00,
2013-12-17 10:49:00,28.8,20.3,30.04,NE,42,3.0,12.0,70,0.00,,,0.00,meteohub,2013-12-17 16:49:00,
2013-12-17 10:54:00,28.8,20.3,30.04,ENE,57,12.0,16.0,70,0.00,,,0.00,meteohub,2013-12-17 16:54:00,
2013-12-17 10:59:00,28.6,20.1,30.04,NE,40,4.0,16.0,70,0.00,,,0.00,meteohub,2013-12-17 16:59:00,
2013-12-17 11:04:00,28.6,20.3,30.03,NE,46,4.0,14.0,71,0.00,,,0.00,meteohub,2013-12-17 17:04:00,
2013-12-17 11:09:00,28.8,20.5,30.03,NNE,32,9.0,14.0,71,0.00,,,0.00,meteohub,2013-12-17 17:09:00,
2013-12-17 11:15:00,28.8,20.5,30.03,East,85,7.0,14.0,71,0.00,,,0.00,meteohub,2013-12-17 17:15:00,
2013-12-17 11:20:00,28.8,20.3,30.03,NE,51,2.0,12.0,70,0.00,,,0.00,meteohub,2013-12-17 17:20:00,
2013-12-17 11:25:00,28.8,20.3,30.03,ENE,72,0.0,15.0,70,0.00,,,0.00,meteohub,2013-12-17 17:25:00,
2013-12-17 11:30:00,28.8,20.3,30.04,ENE,60,4.0,15.0,70,0.00,,,0.00,meteohub,2013-12-17 17:30:00,
2013-12-17 11:35:00,28.9,20.5,30.04,North,355,2.0,14.0,70,0.00,,,0.00,meteohub,2013-12-17 17:35:00,
2013-12-17 11:40:00,28.9,20.5,30.04,ENE,69,6.0,13.0,70,0.00,,,0.00,meteohub,2013-12-17 17:40:00,
2013-12-17 11:45:00,28.8,19.9,30.04,NNE,22,1.0,15.0,69,0.00,,,0.00,meteohub,2013-12-17 17:45:00,
2013-12-17 11:50:00,28.8,19.9,30.04,NE,41,6.0,15.0,69,0.00,,,0.00,meteohub,2013-12-17 17:50:00,
2013-12-17 11:55:00,28.6,20.1,30.03,NNE,33,6.0,21.0,70,0.00,,,0.00,meteohub,2013-12-17 17:55:00,
2013-12-17 12:00:00,28.2,20.1,30.04,NE,46,2.0,21.0,71,0.00,,,0.00,meteohub,2013-12-17 18:00:00,
2013-12-17 12:05:00,28.0,19.9,30.03,ENE,61,5.0,21.0,71,0.00,,,0.00,meteohub,2013-12-17 18:05:00,
2013-12-17 12:10:00,28.0,19.9,30.03,East,82,2.0,16.0,71,0.00,,,0.00,meteohub,2013-12-17 18:10:00,
2013-12-17 12:15:00,28.2,20.1,30.03,ENE,59,4.0,16.0,71,0.00,,,0.00,meteohub,2013-12-17 18:15:00,
2013-12-17 12:20:00,28.2,19.8,30.03,ENE,65,3.0,15.0,70,0.00,,,0.00,meteohub,2013-12-17 18:20:00,
2013-12-17 12:25:00,28.2,19.8,30.03,NE,42,4.0,15.0,70,0.00,,,0.00,meteohub,2013-12-17 18:25:00,
2013-12-17 12:31:00,28.2,19.8,30.03,ENE,71,4.0,16.0,70,0.00,,,0.00,meteohub,2013-12-17 18:31:00,
2013-12-17 12:36:00,28.0,20.1,30.03,NE,42,2.0,16.0,72,0.00,,,0.00,meteohub,2013-12-17 18:36:00,
2013-12-17 12:41:00,27.7,20.1,30.03,NE,40,2.0,15.0,73,0.00,,,0.00,meteohub,2013-12-17 18:41:00,
2013-12-17 12:46:00,27.5,20.3,30.03,East,80,4.0,15.0,74,0.00,,,0.00,meteohub,2013-12-17 18:46:00,
2013-12-17 12:51:00,27.3,20.5,30.04,ENE,72,4.0,16.0,75,0.00,,,0.00,meteohub,2013-12-17 18:51:00,
2013-12-17 12:56:00,27.0,20.1,30.03,ENE,65,5.0,16.0,75,0.00,,,0.00,meteohub,2013-12-17 18:56:00,
2013-12-17 13:01:00,26.8,19.9,30.03,NE,34,6.0,17.0,75,0.00,,,0.00,meteohub,2013-12-17 19:01:00,
2013-12-17 13:06:00,26.8,19.9,30.03,NNW,336,12.0,17.0,75,0.00,,,0.00,meteohub,2013-12-17 19:06:00,
2013-12-17 13:11:00,26.8,20.3,30.03,NE,52,6.0,18.0,76,0.00,,,0.00,meteohub,2013-12-17 19:11:00,
2013-12-17 13:16:00,26.6,20.1,30.03,NE,46,4.0,18.0,76,0.00,,,0.00,meteohub,2013-12-17 19:16:00,
2013-12-17 13:21:00,26.4,19.9,30.03,ENE,59,6.0,18.0,76,0.00,,,0.00,meteohub,2013-12-17 19:21:00,
2013-12-17 13:26:00,26.2,19.8,30.03,NE,53,3.0,20.0,76,0.00,,,0.00,meteohub,2013-12-17 19:26:00,
2013-12-17 13:31:00,26.2,19.8,30.03,ENE,57,9.0,20.0,76,0.00,,,0.00,meteohub,2013-12-17 19:31:00,
2013-12-17 13:36:00,26.2,19.8,30.03,NNE,29,2.0,20.0,76,0.00,,,0.00,meteohub,2013-12-17 19:36:00,
2013-12-17 13:41:00,26.1,19.2,30.03,NE,46,4.0,17.0,75,0.00,,,0.00,meteohub,2013-12-17 19:41:00,
2013-12-17 13:46:00,25.9,18.7,30.03,ENE,61,3.0,17.0,74,0.00,,,0.00,meteohub,2013-12-17 19:46:00,
2013-12-17 13:52:00,26.1,18.9,30.04,NNW,338,4.0,17.0,74,0.00,,,0.00,meteohub,2013-12-17 19:52:00,
2013-12-17 13:57:00,26.1,18.7,30.04,NE,53,13.0,15.0,73,0.00,,,0.00,meteohub,2013-12-17 19:57:00,
2013-12-17 14:02:00,25.9,17.8,30.04,ENE,63,4.0,15.0,71,0.00,,,0.00,meteohub,2013-12-17 20:02:00,
2013-12-17 14:07:00,25.9,17.4,30.04,ENE,65,4.0,19.0,70,0.00,,,0.00,meteohub,2013-12-17 20:07:00,
2013-12-17 14:12:00,25.7,17.2,30.04,ENE,57,12.0,19.0,70,0.00,,,0.00,meteohub,2013-12-17 20:12:00,
2013-12-17 14:17:00,25.5,17.1,30.04,North,355,9.0,19.0,70,0.00,,,0.00,meteohub,2013-12-17 20:17:00,
2013-12-17 14:22:00,25.2,16.7,30.05,NE,52,5.0,17.0,70,0.00,,,0.00,meteohub,2013-12-17 20:22:00,
2013-12-17 14:27:00,25.2,16.7,30.05,NE,49,1.0,18.0,70,0.00,,,0.00,meteohub,2013-12-17 20:27:00,
2013-12-17 14:32:00,25.0,16.3,30.05,ENE,61,5.0,18.0,69,0.00,,,0.00,meteohub,2013-12-17 20:32:00,
2013-12-17 14:37:00,25.0,16.3,30.05,NNW,346,6.0,18.0,69,0.00,,,0.00,meteohub,2013-12-17 20:37:00,
2013-12-17 14:42:00,24.6,15.3,30.06,ENE,59,9.0,17.0,67,0.00,,,0.00,meteohub,2013-12-17 20:42:00,
2013-12-17 14:47:00,24.4,15.1,30.06,NNE,32,6.0,17.0,67,0.00,,,0.00,meteohub,2013-12-17 20:47:00,
2013-12-17 14:52:00,24.4,15.1,30.06,ENE,73,4.0,17.0,67,0.00,,,0.00,meteohub,2013-12-17 20:52:00,
2013-12-17 14:57:00,24.3,14.9,30.06,ENE,67,3.0,16.0,67,0.00,,,0.00,meteohub,2013-12-17 20:57:00,
2013-12-17 15:02:00,24.3,14.5,30.06,ENE,72,6.0,16.0,66,0.00,,,0.00,meteohub,2013-12-17 21:02:00,
2013-12-17 15:07:00,24.1,14.4,30.06,NE,53,4.0,16.0,66,0.00,,,0.00,meteohub,2013-12-17 21:07:00,
2013-12-17 15:12:00,23.7,14.0,30.07,NE,38,5.0,16.0,66,0.00,,,0.00,meteohub,2013-12-17 21:12:00,
2013-12-17 15:17:00,23.5,13.8,30.07,NE,34,4.0,17.0,66,0.00,,,0.00,meteohub,2013-12-17 21:17:00,
2013-12-17 15:22:00,23.5,13.8,30.07,ENE,64,5.0,17.0,66,0.00,,,0.00,meteohub,2013-12-17 21:22:00,
2013-12-17 15:27:00,23.4,13.6,30.08,ENE,72,4.0,17.0,66,0.00,,,0.00,meteohub,2013-12-17 21:27:00,
2013-12-17 15:32:00,23.2,13.5,30.08,NE,38,4.0,17.0,66,0.00,,,0.00,meteohub,2013-12-17 21:32:00,
2013-12-17 15:37:00,23.0,13.3,30.08,NE,38,0.0,13.0,66,0.00,,,0.00,meteohub,2013-12-17 21:37:00,
2013-12-17 15:42:00,22.8,13.1,30.09,NE,43,7.0,12.0,66,0.00,,,0.00,meteohub,2013-12-17 21:42:00,
2013-12-17 15:47:00,22.6,12.9,30.09,NE,38,3.0,12.0,66,0.00,,,0.00,meteohub,2013-12-17 21:47:00,
2013-12-17 15:52:00,22.5,12.7,30.09,NNW,331,3.0,15.0,66,0.00,,,0.00,meteohub,2013-12-17 21:52:00,
2013-12-17 15:57:00,22.3,12.7,30.09,NNE,33,9.0,19.0,66,0.00,,,0.00,meteohub,2013-12-17 21:57:00,
2013-12-17 16:02:00,22.1,12.6,30.09,NE,48,10.0,19.0,66,0.00,,,0.00,meteohub,2013-12-17 22:02:00,
2013-12-17 16:07:00,21.9,12.4,30.09,NE,51,7.0,19.0,66,0.00,,,0.00,meteohub,2013-12-17 22:07:00,
2013-12-17 16:12:00,21.7,12.2,30.09,NNE,32,0.0,18.0,66,0.00,,,0.00,meteohub,2013-12-17 22:12:00,
2013-12-17 16:17:00,21.6,12.0,30.10,NE,55,0.0,17.0,66,0.00,,,0.00,meteohub,2013-12-17 22:17:00,
2013-12-17 16:22:00,21.4,11.5,30.09,NE,56,4.0,16.0,65,0.00,,,0.00,meteohub,2013-12-17 22:22:00,
2013-12-17 16:27:00,21.2,11.3,30.10,NE,55,1.0,11.0,65,0.00,,,0.00,meteohub,2013-12-17 22:27:00,
2013-12-17 16:33:00,21.0,11.1,30.10,NNE,32,5.0,12.0,65,0.00,,,0.00,meteohub,2013-12-17 22:33:00,
2013-12-17 16:38:00,20.8,10.9,30.11,ENE,60,3.0,12.0,65,0.00,,,0.00,meteohub,2013-12-17 22:38:00,
2013-12-17 16:43:00,20.7,10.8,30.11,NE,49,4.0,12.0,65,0.00,,,0.00,meteohub,2013-12-17 22:43:00,
2013-12-17 16:48:00,20.5,10.6,30.11,NE,44,5.0,12.0,65,0.00,,,0.00,meteohub,2013-12-17 22:48:00,
2013-12-17 16:53:00,20.3,10.4,30.12,ENE,76,4.0,10.0,65,0.00,,,0.00,meteohub,2013-12-17 22:53:00,
2013-12-17 16:58:00,20.1,10.2,30.12,NE,51,2.0,10.0,65,0.00,,,0.00,meteohub,2013-12-17 22:58:00,
2013-12-17 17:03:00,19.9,10.0,30.12,NE,54,4.0,10.0,65,0.00,,,0.00,meteohub,2013-12-17 23:03:00,
2013-12-17 17:08:00,19.8,9.9,30.12,ENE,59,2.0,10.0,65,0.00,,,0.00,meteohub,2013-12-17 23:08:00,
2013-12-17 17:13:00,19.8,9.9,30.12,NNE,33,0.0,9.0,65,0.00,,,0.00,meteohub,2013-12-17 23:13:00,
2013-12-17 17:18:00,19.8,9.9,30.13,NE,53,10.0,10.0,65,0.00,,,0.00,meteohub,2013-12-17 23:18:00,
2013-12-17 17:23:00,19.8,9.9,30.13,NE,34,5.0,10.0,65,0.00,,,0.00,meteohub,2013-12-17 23:23:00,
2013-12-17 17:28:00,19.6,9.7,30.14,ENE,63,5.0,11.0,65,0.00,,,0.00,meteohub,2013-12-17 23:28:00,
2013-12-17 17:33:00,19.4,9.9,30.14,NE,52,0.0,11.0,66,0.00,,,0.00,meteohub,2013-12-17 23:33:00,
2013-12-17 17:38:00,19.2,9.7,30.14,NE,52,0.0,9.0,66,0.00,,,0.00,meteohub,2013-12-17 23:38:00,
2013-12-17 17:43:00,19.0,9.5,30.14,NNE,28,0.0,7.0,66,0.00,,,0.00,meteohub,2013-12-17 23:43:00,
2013-12-17 17:49:00,19.0,9.5,30.14,NE,46,3.0,6.0,66,0.00,,,0.00,meteohub,2013-12-17 23:49:00,
2013-12-17 17:54:00,18.9,9.3,30.14,NE,38,1.0,9.0,66,0.00,,,0.00,meteohub,2013-12-17 23:54:00,
2013-12-17 17:59:00,18.9,9.7,30.14,NE,49,0.0,9.0,67,0.00,,,0.00,meteohub,2013-12-17 23:59:00,
2013-12-17 18:04:00,18.7,9.5,30.14,NE,56,0.0,9.0,67,0.00,,,0.00,meteohub,2013-12-18 00:04:00,
2013-12-17 18:09:00,18.5,9.3,30.14,NE,42,3.0,7.0,67,0.00,,,0.00,meteohub,2013-12-18 00:09:00,
2013-12-17 18:14:00,18.5,9.7,30.14,NE,38,2.0,8.0,68,0.00,,,0.00,meteohub,2013-12-18 00:14:00,
2013-12-17 18:19:00,18.3,9.5,30.14,NE,54,4.0,8.0,68,0.00,,,0.00,meteohub,2013-12-18 00:19:00,
2013-12-17 18:24:00,18.3,9.5,30.14,NNE,22,0.0,8.0,68,0.00,,,0.00,meteohub,2013-12-18 00:24:00,
2013-12-17 18:29:00,18.1,9.7,30.14,North,355,0.0,7.0,69,0.00,,,0.00,meteohub,2013-12-18 00:29:00,
2013-12-17 18:34:00,18.1,9.7,30.14,NE,36,0.0,7.0,69,0.00,,,0.00,meteohub,2013-12-18 00:34:00,
2013-12-17 18:39:00,18.1,9.7,30.15,NE,53,0.0,6.0,69,0.00,,,0.00,meteohub,2013-12-18 00:39:00,
2013-12-17 18:44:00,18.0,9.5,30.15,NNE,28,0.0,6.0,69,0.00,,,0.00,meteohub,2013-12-18 00:44:00,
2013-12-17 18:49:00,18.0,9.5,30.15,NE,52,0.0,5.0,69,0.00,,,0.00,meteohub,2013-12-18 00:49:00,
2013-12-17 18:54:00,18.0,9.5,30.15,NE,51,0.0,5.0,69,0.00,,,0.00,meteohub,2013-12-18 00:54:00,
2013-12-17 18:59:00,17.8,9.7,30.15,NE,51,0.0,5.0,70,0.00,,,0.00,meteohub,2013-12-18 00:59:00,
2013-12-17 19:05:00,17.8,9.7,30.16,NE,52,0.0,4.0,70,0.00,,,0.00,meteohub,2013-12-18 01:05:00,
2013-12-17 19:10:00,17.4,9.3,30.16,NE,51,0.0,2.0,70,0.00,,,0.00,meteohub,2013-12-18 01:10:00,
2013-12-17 19:15:00,17.4,9.3,30.15,NE,52,0.0,1.0,70,0.00,,,0.00,meteohub,2013-12-18 01:15:00,
2013-12-17 19:20:00,17.2,9.1,30.16,NE,51,2.0,2.0,70,0.00,,,0.00,meteohub,2013-12-18 01:20:00,
2013-12-17 19:25:00,17.1,9.0,30.16,NE,52,0.0,2.0,70,0.00,,,0.00,meteohub,2013-12-18 01:25:00,
2013-12-17 19:30:00,17.1,9.0,30.16,NNE,33,0.0,4.0,70,0.00,,,0.00,meteohub,2013-12-18 01:30:00,
2013-12-17 19:35:00,16.9,9.1,30.16,NE,38,0.0,4.0,71,0.00,,,0.00,meteohub,2013-12-18 01:35:00,
2013-12-17 19:40:00,16.9,9.1,30.16,NE,38,0.0,3.0,71,0.00,,,0.00,meteohub,2013-12-18 01:40:00,
2013-12-17 19:45:00,16.7,9.0,30.16,NE,38,0.0,3.0,71,0.00,,,0.00,meteohub,2013-12-18 01:45:00,
2013-12-17 19:50:00,16.5,8.8,30.16,NE,38,0.0,3.0,71,0.00,,,0.00,meteohub,2013-12-18 01:50:00,
2013-12-17 19:55:00,16.3,8.6,30.16,NE,38,0.0,2.0,71,0.00,,,0.00,meteohub,2013-12-18 01:55:00,
2013-12-17 20:00:00,16.3,8.6,30.16,NE,37,0.0,2.0,71,0.00,,,0.00,meteohub,2013-12-18 02:00:00,
2013-12-17 20:05:00,16.2,8.4,30.16,NE,37,0.0,2.0,71,0.00,,,0.00,meteohub,2013-12-18 02:05:00,
2013-12-17 20:10:00,16.0,8.6,30.16,NE,37,0.0,0.0,72,0.00,,,0.00,meteohub,2013-12-18 02:10:00,
2013-12-17 20:15:00,16.0,8.2,30.16,NE,37,0.0,0.0,71,0.00,,,0.00,meteohub,2013-12-18 02:15:00,
2013-12-17 20:21:00,15.6,7.9,30.16,NE,37,0.0,0.0,71,0.00,,,0.00,meteohub,2013-12-18 02:21:00,
2013-12-17 20:26:00,15.6,7.9,30.16,NE,37,0.0,0.0,71,0.00,,,0.00,meteohub,2013-12-18 02:26:00,
2013-12-17 20:31:00,15.4,7.7,30.16,NE,37,0.0,0.0,71,0.00,,,0.00,meteohub,2013-12-18 02:31:00,
2013-12-17 20:36:00,15.3,7.9,30.16,NE,37,0.0,0.0,72,0.00,,,0.00,meteohub,2013-12-18 02:36:00,
2013-12-17 20:41:00,15.1,7.3,30.16,NE,37,0.0,0.0,71,0.00,,,0.00,meteohub,2013-12-18 02:41:00,
2013-12-17 20:46:00,14.7,7.0,30.16,NE,37,0.0,0.0,71,0.00,,,0.00,meteohub,2013-12-18 02:46:00,
2013-12-17 20:51:00,14.4,6.6,30.16,NE,38,0.0,0.0,71,0.00,,,0.00,meteohub,2013-12-18 02:51:00,
2013-12-17 20:56:00,14.2,6.8,30.16,NE,37,0.0,0.0,72,0.00,,,0.00,meteohub,2013-12-18 02:56:00,
2013-12-17 21:01:00,13.8,6.4,30.16,NE,38,0.0,0.0,72,0.00,,,0.00,meteohub,2013-12-18 03:01:00,
2013-12-17 21:06:00,13.6,6.1,30.16,NE,37,0.0,0.0,71,0.00,,,0.00,meteohub,2013-12-18 03:06:00,
2013-12-17 21:11:00,13.3,5.9,30.16,NE,37,0.0,0.0,72,0.00,,,0.00,meteohub,2013-12-18 03:11:00,
2013-12-17 21:16:00,12.9,5.5,30.16,NE,37,0.0,0.0,72,0.00,,,0.00,meteohub,2013-12-18 03:16:00,
2013-12-17 21:21:00,12.6,5.2,30.16,NE,37,0.0,0.0,72,0.00,,,0.00,meteohub,2013-12-18 03:21:00,
2013-12-17 21:26:00,12.2,4.8,30.16,NE,37,0.0,0.0,72,0.00,,,0.00,meteohub,2013-12-18 03:26:00,
2013-12-17 21:32:00,11.8,4.6,30.17,NE,37,0.0,0.0,72,0.00,,,0.00,meteohub,2013-12-18 03:32:00,
2013-12-17 21:37:00,11.5,4.5,30.17,NE,38,0.0,0.0,73,0.00,,,0.00,meteohub,2013-12-18 03:37:00,
2013-12-17 21:42:00,10.9,3.9,30.17,NE,37,0.0,0.0,73,0.00,,,0.00,meteohub,2013-12-18 03:42:00,
2013-12-17 21:47:00,10.8,4.1,30.16,NE,37,0.0,0.0,74,0.00,,,0.00,meteohub,2013-12-18 03:47:00,
2013-12-17 21:52:00,10.6,3.9,30.16,NE,37,0.0,0.0,74,0.00,,,0.00,meteohub,2013-12-18 03:52:00,
2013-12-17 21:57:00,10.4,3.7,30.16,NE,37,0.0,0.0,74,0.00,,,0.00,meteohub,2013-12-18 03:57:00,
2013-12-17 22:02:00,10.2,3.6,30.16,NE,37,0.0,0.0,74,0.00,,,0.00,meteohub,2013-12-18 04:02:00,
2013-12-17 22:07:00,9.9,3.6,30.17,NE,37,0.0,0.0,75,0.00,,,0.00,meteohub,2013-12-18 04:07:00,
2013-12-17 22:12:00,9.9,3.6,30.17,NE,37,0.0,0.0,75,0.00,,,0.00,meteohub,2013-12-18 04:12:00,
2013-12-17 22:17:00,9.7,3.4,30.16,NE,37,0.0,0.0,75,0.00,,,0.00,meteohub,2013-12-18 04:17:00,
2013-12-17 22:22:00,9.5,3.6,30.16,NE,37,0.0,0.0,76,0.00,,,0.00,meteohub,2013-12-18 04:22:00,
2013-12-17 22:27:00,9.3,3.4,30.16,NE,37,0.0,0.0,76,0.00,,,0.00,meteohub,2013-12-18 04:27:00,
2013-12-17 22:32:00,9.1,3.2,30.16,NE,37,0.0,0.0,76,0.00,,,0.00,meteohub,2013-12-18 04:32:00,
2013-12-17 22:37:00,9.0,3.0,30.16,NE,37,0.0,0.0,76,0.00,,,0.00,meteohub,2013-12-18 04:37:00,
2013-12-17 22:42:00,9.0,3.2,30.16,NE,37,0.0,0.0,77,0.00,,,0.00,meteohub,2013-12-18 04:42:00,
2013-12-17 22:47:00,8.8,3.0,30.15,NE,37,0.0,0.0,77,0.00,,,0.00,meteohub,2013-12-18 04:47:00,
2013-12-17 22:52:00,8.6,2.8,30.15,NE,37,0.0,0.0,77,0.00,,,0.00,meteohub,2013-12-18 04:52:00,
2013-12-17 22:57:00,8.4,2.7,30.15,NE,37,0.0,0.0,77,0.00,,,0.00,meteohub,2013-12-18 04:57:00,
2013-12-17 23:01:00,8.4,3.0,30.15,NE,37,0.0,0.0,78,0.00,,,0.00,meteohub,2013-12-18 05:01:00,
2013-12-17 23:02:00,8.4,3.0,30.15,NE,37,0.0,0.0,78,0.00,,,0.00,meteohub,2013-12-18 05:02:00,
2013-12-17 23:03:00,8.2,2.5,30.15,NE,37,0.0,0.0,77,0.00,,,0.00,meteohub,2013-12-18 05:03:00,
2013-12-17 23:09:00,8.2,2.8,30.15,NE,38,0.0,0.0,78,0.00,,,0.00,meteohub,2013-12-18 05:09:00,
2013-12-17 23:11:00,8.1,2.7,30.15,NE,38,0.0,0.0,78,0.00,,,0.00,meteohub,2013-12-18 05:11:00,
2013-12-17 23:16:00,8.1,2.7,30.14,NE,37,0.0,0.0,78,0.00,,,0.00,meteohub,2013-12-18 05:16:00,
2013-12-17 23:21:00,7.9,2.5,30.14,NE,37,0.0,0.0,78,0.00,,,0.00,meteohub,2013-12-18 05:21:00,
2013-12-17 23:26:00,7.9,2.5,30.14,NE,37,0.0,0.0,78,0.00,,,0.00,meteohub,2013-12-18 05:26:00,
2013-12-17 23:31:00,7.5,2.1,30.14,NE,37,0.0,0.0,78,0.00,,,0.00,meteohub,2013-12-18 05:31:00,
2013-12-17 23:36:00,7.3,1.9,30.14,NE,38,0.0,0.0,78,0.00,,,0.00,meteohub,2013-12-18 05:36:00,
2013-12-17 23:41:00,7.3,2.1,30.14,NE,38,0.0,0.0,79,0.00,,,0.00,meteohub,2013-12-18 05:41:00,
2013-12-17 23:47:00,7.3,2.1,30.14,NE,37,0.0,0.0,79,0.00,,,0.00,meteohub,2013-12-18 05:47:00,
2013-12-17 23:52:00,7.3,2.1,30.14,NE,37,0.0,0.0,79,0.00,,,0.00,meteohub,2013-12-18 05:52:00,
2013-12-17 23:57:00,7.3,2.1,30.13,NE,37,0.0,0.0,79,0.00,,,0.00,meteohub,2013-12-18 05:57:00,